This is the latest recevied weather packets stored in our database for station/object PP5KJ-13. If no packets are shown the sender has not sent any weather packets the latest 10 day(s).
| Time | Temp. | Humidity | Pressure | Rain* | Wind** | Luminosity | Snow |
|---|---|---|---|---|---|---|---|
| 1788479000 | 21.11° C | 5% | 1013 hPa | 0 mm | 7.15 m/s, 330° | - | - |
| 1788478400 | 20.56° C | 5% | 1013 hPa | 0 mm | 7.15 m/s, 330° | - | - |
| 1788477800 | 20.56° C | 5% | 1013 hPa | 0 mm | 7.15 m/s, 330° | - | - |
| 1788477200 | 20.56° C | 5% | 1013 hPa | 0 mm | 7.15 m/s, 330° | - | - |
| 1788476601 | 20.56° C | 5% | 1013 hPa | 0 mm | 4.92 m/s, 330° | - | - |
| 1788476000 | 20.56° C | 5% | 1013 hPa | 0 mm | 4.92 m/s, 330° | - | - |
| 1788475400 | 20.56° C | 5% | 1013 hPa | 0 mm | 4.92 m/s, 330° | - | - |
| 1788474800 | 20.56° C | 5% | 1013 hPa | 0 mm | 4.92 m/s, 330° | - | - |
| 1788474200 | 21.11° C | 5% | 1013 hPa | 0 mm | 4.92 m/s, 330° | - | - |
| 1788473600 | 21.11° C | 5% | 1013 hPa | 0 mm | 4.92 m/s, 330° | - | - |
| 1788472400 | 21.11° C | 5% | 1013 hPa | 0 mm | 6.71 m/s, 330° | - | - |
| 1788471813 | 21.11° C | 5% | 1013 hPa | 0 mm | 6.71 m/s, 330° | - | - |
| 1788471200 | 21.67° C | 5% | 1012 hPa | 0 mm | 6.71 m/s, 330° | - | - |
| 1788470600 | 21.11° C | 5% | 1012 hPa | 0 mm | 6.71 m/s, 330° | - | - |
| 1788470000 | 21.67° C | 5% | 1012 hPa | 0 mm | 6.71 m/s, 330° | - | - |
| 1788469400 | 21.67° C | 5% | 1012 hPa | 0 mm | 7.15 m/s, 360° | - | - |
| 1788468800 | 21.67° C | 5% | 1012 hPa | 0 mm | 7.15 m/s, 360° | - | - |
| 1788468200 | 22.22° C | 5% | 1012 hPa | 0 mm | 7.15 m/s, 360° | - | - |
| 1788467600 | 22.22° C | 5% | 1012 hPa | 0 mm | 7.15 m/s, 360° | - | - |
| 1788466999 | 22.78° C | 5% | 1012 hPa | 0 mm | 7.15 m/s, 360° | - | - |
| 1788466399 | 22.78° C | 5% | 1012 hPa | 0 mm | 7.15 m/s, 360° | - | - |
| 1788465799 | 23.33° C | 5% | 1012 hPa | 0 mm | 3.13 m/s, 16° | - | - |
| 1788465199 | 23.33° C | 5% | 1012 hPa | 0 mm | 3.13 m/s, 16° | - | - |
| 1788464599 | 23.33° C | 5% | 1012 hPa | 0 mm | 3.13 m/s, 16° | - | - |
| 1788463999 | 31.11° C | 5% | 1012 hPa | 0 mm | 3.58 m/s, 19° | - | - |
* Rain latest hour (hover to see other rain measurements)
** Current wind speed in m/s (hover to see current wind gust speed)